Location: Sternwarte ZA, Rosenfeld-Brittheim
(48.2889°N, 8.6789°E)
Time: 04:08:16
(UTC+01:00)

ISS - Visible Passes

Search period start: 17 November 2018 00:00
Search period end: 27 November 2018 00:00
Orbit: 402 x 408 km, 51.6° (Epoch: 17 November)

Date Brightness Start Highest point End Pass type
(mag) Time Alt. Az. Time Alt. Az. Time Alt. Az.
24 Nov -1.7 18:32:39 10° S 18:34:06 17° SSE 18:34:06 17° SSE visible
25 Nov -1.4 17:42:01 10° SSE 17:43:07 11° SE 17:44:14 10° ESE visible
25 Nov -1.3 19:15:50 10° SW 19:16:57 19° SW 19:16:57 19° SW visible
26 Nov -3.0 18:23:55 10° SW 18:26:58 36° SE 18:27:02 36° SE visible
